Home > Weather > Cape Town > Past weeks

Flag for South Africa Weather for the Past 2 Weeks in Cape Town, South Africa

Now
57 °F

Clear.


Feels Like: 57 °F
Forecast: 60 / 69 °F
Wind: No wind

Location: Cape Town International Airport

Current Time: May 4, 2016 at 2:26:38 AM

Latest Report: May 4, 2016 at 2:00 AM


Visibility: 10 mi

Pressure: 30.15 "Hg

Humidity: 88%

Dew Point: 54 °F

Location of Cape TownLocation

Historic Weather in Cape Town — Graph

°F

Cape Town Temperature Yesterday

Maximum temperature yesterday: 68 °F (at 12:00 PM)
Minimum temperature yesterday: 57 °F (at 3:00 AM)
Average temperature yesterday: 62 °F

High & Low Weather Summary for the Past Weeks

 TemperatureHumidityPressure
High79 °F (Apr 19, 2:00 PM)94% (Apr 19, 2:00 AM)30.33 "Hg (Apr 19, 2:00 AM)
Low43 °F (May 1, 8:00 AM)46% (Apr 23, 3:00 PM)29.53 "Hg (Apr 22, 4:00 PM)
Average60 °F77%30.03 "Hg
* Reported Apr 19 1:00 AM — May 4 1:00 AM, Cape Town, Weather by CustomWeather, © 2016

Note: Actual official high and low records may vary slightly from our data, if they occured in-between our weather recording intervals... More about our weather records

Advertising

Cape Town Weather History for the Previous 24 Hours

Scroll right to see more
 ConditionsComfort  
Time TempWeatherWind HumidityBarometerVisibility
1:00 AM
Wed, May 4
59 °FPassing clouds.5 mph77%30.15 "HgN/A
12:00 AM63 °FClear.13 mph77%30.18 "Hg10 mi
11:00 PM
Tue, May 3
63 °FClear.13 mph77%30.18 "Hg10 mi
10:00 PM61 °FClear.12 mph83%30.18 "Hg10 mi
9:00 PM61 °FClear.12 mph83%30.18 "Hg10 mi
8:00 PM61 °FClear.14 mph83%30.18 "Hg10 mi
7:00 PM63 °FClear.10 mph77%30.18 "Hg10 mi
6:00 PM63 °FClear.15 mph77%30.15 "Hg10 mi
5:00 PM66 °FSunny.14 mph68%30.15 "Hg10 mi
4:00 PM68 °FPassing clouds.18 mph69%30.15 "HgN/A
3:00 PM68 °FPassing clouds.17 mph64%30.18 "HgN/A
2:00 PM68 °FSunny.17 mph64%30.18 "Hg10 mi
1:00 PM68 °FSunny.16 mph64%30.21 "Hg10 mi
12:00 PM68 °FSunny.16 mph60%30.21 "Hg10 mi
11:00 AM66 °FPassing clouds.16 mph64%30.21 "HgN/A
10:00 AM64 °FScattered clouds.13 mph68%30.21 "HgN/A
9:00 AM61 °FPassing clouds.13 mph72%30.21 "HgN/A
8:00 AM57 °FPassing clouds.9 mph82%30.18 "HgN/A
7:00 AM57 °FSunny.9 mph82%30.18 "Hg10 mi
6:00 AM57 °FClear.8 mph82%30.15 "Hg10 mi
5:00 AM57 °FClear.10 mph88%30.15 "Hg10 mi
4:00 AM57 °FClear.13 mph82%30.15 "Hg10 mi
3:00 AM57 °FClear.10 mph82%30.15 "Hg10 mi
2:00 AM59 °FClear.12 mph77%30.15 "Hg10 mi
Weather by CustomWeather, © 2016

See weather overviewHow to use our weather pages